Other Public Products
Issued by NWS Grand Forks, ND

Home | Current Version | Previous Version | Text Only | Print | Product List | Glossary On
Versions: 1 2 3 4 5 6 7 8 9 10 11 12 13 14 15 16 17 18 19 20 21 22 23 24 25 26 27 28 29 30 31 32 33 34 35 36 37 38 39 40 41 42 43 44 45 46 47 48 49 50
929
FPUS83 KFGF 090710
OPUFGF
PRAIRIE TO PINES WEATHER ROUNDUP
NATIONAL WEATHER SERVICE EASTERN NORTH DAKOTA/GRAND FORKS ND
100 AM CST TUE FEB 09 2016

 **SATELLITE DATA USED TO AUGMENT SKY COVER AT AUTOMATED STATIONS**
 *****  WEATHER ACROSS EASTERN NORTH DAKOTA  *****

CITY           SKY/WX    TMP DP  RH WIND       PRES   REMARKS
GRAND FORKS    CLEAR      5  -1  76 NW9       30.26R WCI  -9
GRAND FORKS AF CLEAR      4  -2  76 NW7       30.26R WCI  -8
GRAND CITY NWS NOT AVBL
BUXTON           N/A      6   2  85 NW13        N/A  WCI -10
DEVILS LAKE    CLOUDY     6   3  87 NW7       30.25S WCI  -6
FARGO          CLEAR      7   0  73 N16       30.23R WCI -11
WAHPETON ARPT  MOSUNNY    9   1  72 N20G28    30.20S WCI -11
$$

 *****  WEATHER ACROSS CENTRAL AND WESTERN NORTH DAKOTA  *****

CITY           SKY/WX    TMP DP  RH WIND       PRES   REMARKS
JAMESTOWN      CLEAR      9   5  84 N8        30.24R WCI  -3
BISMARCK       CLOUDY    26  13  57 N9        30.28R WCI  17
MINOT          CLOUDY    25  12  58 SW5       30.26S WCI  19
MINOT AFB      CLOUDY    23  18  81 CALM      30.26S
GARRISON         N/A     23  14  68 N8        30.27R WCI  14
WILLISTON      CLOUDY    29  23  78 S5        30.24F WCI  24
DICKINSON      CLOUDY    28  17  63 N5        30.22R WCI  23
HETTINGER      CLOUDY    28  16  60 NW3       30.23F
$$

 *****  OTHER OBSERVATIONS NORTHEAST NORTH DAKOTA  *****

CITY           SKY/WX    TMP DP  RH WIND       PRES   REMARKS
WALHALLA       FAIR       9   7  92 NW6       30.28R WCI  -1
LANGDON        CLOUDY     3   0  85 NW7       30.21F WCI  -9
CAVALIER       CLOUDY     9   1  72 NW12      30.27R WCI  -6
GRAFTON        FAIR       5   0  78 NW12      30.29R WCI -11
CANDO          NOT AVBL
FORT TOTTEN      N/A      5   2  87 CALM      29.95S
ROLLA          CLOUDY    14   7  73 NW13      30.24R WCI   0
RUGBY          PTSUNNY   16  10  79 W9        30.25R WCI   4
 ***** THE ABOVE OBSERVATIONS ARE NON NWS ARE NOT QUALITY
        CONTROLLED AND MAY MIS-REPORT RAIN FOR SNOW...
$$

 *****  OTHER OBSERVATIONS SOUTHEAST NORTH DAKOTA *****

CITY           SKY/WX    TMP DP  RH WIND       PRES   REMARKS
COOPERSTOWN    NOT AVBL
VALLEY CITY    FAIR       7   5  92 N13       30.25R WCI  -9
OAKES          FAIR      10   7  85 N15       30.23R WCI  -6
GWINNER          N/A     10   7  85 N13       30.23R WCI  -5
SHEYENNE NWR     N/A      7   1  75 N7        29.95S WCI  -5
BUFFALO          N/A      6   0  77 N10         N/A  WCI  -9
WYNDMERE         N/A      9   1  72 N16         N/A  WCI  -9
 ***** THE ABOVE OBSERVATIONS ARE NON NWS ARE NOT QUALITY
       CONTROLLED AND MAY MIS-REPORT RAIN FOR SNOW...
$$

  *****  WEATHER ACROSS NORTHERN MINNESOTA  *****

CITY           SKY/WX    TMP DP  RH WIND       PRES   REMARKS
FLAG ISLAND    CLOUDY     0  -4  85 NW12      30.14S WCI -18
WARROAD        CLOUDY     0  -4  85 NW8       30.16F WCI -15
ROSEAU         CLOUDY     1  -6  71 N12       30.18S WCI -15
HALLOCK        CLOUDY     1  -4  78 NW7       30.25R WCI -11
THF RVR FALLS  NOT AVBL
HALSTAD        NOT AVBL
FOSSTON        CLEAR      0  -6  78 N13       30.16S WCI -18
BAUDETTE       CLOUDY     0  -5  79 NW12      30.11S WCI -17
WASKISH        MOCLDY     3   0  85 NW9       30.11S WCI -11
CROOKSTON      CLEAR      3   0  85 N12       30.24S WCI -13
$$
  *****  WEATHER ACROSS CENTRAL AND WEST MINNESOTA  *****

CITY           SKY/WX    TMP DP  RH WIND       PRES   REMARKS
BEMIDJI        FLURRIES   3  -2  79 NW12      30.09S WCI -14
PARK RAPIDS    CLOUDY     6  -3  66 N18G25    30.07S WCI -13
WADENA         CLOUDY     5  -2  72 N13G20    30.07S WCI -12
DETROIT LAKES  MOCLDY     5   1  85 N15G26    30.13S WCI -13
MOORHEAD       CLEAR      7   0  72 N18       30.22S WCI -12
FERGUS FALLS   CLOUDY     5   0  78 N17G25    30.19S WCI -14
ELBOW LAKE     PTSUNNY    5   1  81 NW18G24   30.13S WCI -14
MORRIS MN      PTCLDY     7   1  78 N24       30.12S WCI -15
STAPLES        MOCLDY     3  -2  78 N16       30.06F WCI -16
WHEATON        CLOUDY     9   3  78 NW18G25   30.20F WCI -10
$$
  *****  WEATHER ELSEWHERE ACROSS MINNESOTA  *****

CITY           SKY/WX    TMP DP  RH WIND       PRES   REMARKS
DULUTH         CLOUDY     2  -5  72 N16       29.93S WCI -18
INTRNTL FALLS  CLOUDY     1  -4  79 N14G24    30.06F WCI -17
ELY            CLOUDY     1  -4  78 N8G18     29.94S WCI -12
CLOQUET        CLOUDY     3  -4  72 NW14G23   29.96S WCI -15
BRAINERD       PTCLDY     5  -2  72 N15G25    30.04S WCI -13
HIBBING        CLOUDY     0  -5  79 NW16      29.98F WCI -20
ALEXANDRIA     MOCLDY     6  -1  73 N12       30.07S WCI  -9
SAINT CLOUD    CLOUDY     9   1  70 N16G25    30.02S WCI  -8
MINNEAPOLIS    FLURRIES  12   4  70 NW10G20   30.00R WCI  -1
$$

  *****  WEATHER ACROSS SOUTH DAKOTA  *****

CITY           SKY/WX    TMP DP  RH WIND       PRES   REMARKS
SIOUX FALLS    PTCLDY    12   5  73 N25G31    30.12S WCI  -8
BROOKINGS      CLOUDY     9   3  77 N24       30.10F WCI -12
WATERTOWN      CLOUDY     8   1  73 N22       30.12F WCI -12
HURON          CLEAR     16   9  74 N15       30.22R WCI   1
SISSETON         N/A      6   3  87 N17       30.19S WCI -13
ABERDEEN       CLEAR     15   8  73 N10       30.24S WCI   2
MITCHELL       CLEAR     18  11  74 N16       30.22S WCI   3
PIERRE         CLEAR     24  17  74 N14       30.23F WCI  12
MOBRIDGE       CLEAR     22  13  68 NW9       30.22R WCI  12
RAPID CITY     CLOUDY    33  18  53 N6        30.24R
$$

  *****  SOME WEATHER IN NEARBY STATES *****

CITY           SKY/WX    TMP DP  RH WIND       PRES   REMARKS
GLASGOW MT     PTCLDY    27  19  72 NW7       30.23S WCI  19
GREAT FALLS MT CLOUDY    41  30  65 SW14      30.33S
CHEYENNE WY    CLEAR     37  19  48 NW17G29   30.29S
SCOTTSBLUFF NE CLEAR     31  25  78 NW12      30.25F WCI  22
OMAHA NE       CLEAR     23  12  62 N24G36    30.08S WCI   7
DES MOINES IA  FLURRIES  15   7  70 NW17G24   30.00F WCI  -1
DAVENPORT IA   FLURRIES  16  10  77 NW17      29.85S WCI   0
CHICAGO IL     FLURRIES  20  15  81 NW14      29.72F WCI   7
EAU CLAIRE WI  PTCLDY     8  -1  66 NW10G21   29.92R WCI  -6
LA CROSSE WI   CLOUDY    12   3  67 N14       29.91S WCI  -3
$$

  *****  SOME NATIONAL WEATHER *****

CITY           SKY/WX    TMP DP  RH WIND       PRES   REMARKS
LA GUARDIA NY  CLOUDY    28  22  78 E9        29.74S WCI  19
RALEIGH NC     CLOUDY    37  36  96 CALM      29.61F
ATLANTA GA     MOCLDY    37  22  54 W14G21    29.80F
NEW ORLEANS LA CLEAR     45  18  34 W14       30.14S
OKLAHOMA CITY  PTCLDY    31  14  49 NW6       30.25S
ALBUQUERQUE NM CLOUDY    34  20  56 SE3       30.40S
SALT LAKE CITY PTCLDY    28  25  88 CALM      30.63S FOG
LOS ANGELES CA CLEAR     68  30  24 E3        30.13S
BOISE ID       CLEAR     33  28  81 SE8       30.64S
SEATTLE WA     CLEAR     47  42  83 N9        30.28F
$$

*** WEATHER ACROSS MANITOBA...SASKATCHEWAN AND ONTARIO ***
                ***ONTARIO***

CITY           SKY/WX    TMP DP  RH WIND       PRES   REMARKS
GERALDTON      LGT SNOW  -4  -9  77 N9        29.84R DRFTSNOWWCI -20
THUNDER BAY    FLURRIES   7   0  72 N8G17     29.90S WCI  -6
SIOUX LOOKOUT  NOT AVBL
TORONTO        FLURRIES  28  25  86 E15G22    29.51F WCI  17
BIG TROUT LK   FLURRIES  -4 -11  71 NW9       30.09S WCI -20
PICKLE LAKE    NOT AVBL
DRYDEN         FLURRIES   0  -4  85 N9        30.03F WCI -16
KENORA         CLEAR     -2  -6  84 N8        30.10S WCI -17
$$
                *** MANITOBA***

CITY           SKY/WX    TMP DP  RH WIND       PRES   REMARKS
BRANDON        CLOUDY    12   7  79 CALM      30.27R
DAUPHIN        CLOUDY    14   9  79 E2        30.28S
ISLAND LAKE    PTCLDY   -15 -20  76 N8        30.27R WCI -32
PILOT MOUND      N/A      7   5  92 NW3         N/A
THE PAS        FLURRIES   1  -2  85 NE3       30.36R
THOMPSON       CLEAR    -22 -27  76 N7        30.38S WCI -39
WINNIPEG       MOCLDY     0  -6  78 NW7       30.28R WCI -13
LYNN LAKE      CLEAR    -24 -31  69 CALM      30.37S
CHURCHILL      CRYSTALS -22 -27  76 NW15      30.40R BLWGSNOWWCI -48
GILLAM         CLEAR    -24 -29  76 NW9       30.33S WCI -45
$$
                ***SASKATCHEWAN***

CITY           SKY/WX    TMP DP  RH WIND       PRES   REMARKS
ESTEVAN        CLOUDY    25  21  86 S6        30.23F WCI  18
KINDERSLEY     CLOUDY    27  25  93 W3        30.22F
LLOYDMINSTER   CLOUDY    32  28  86 W6        30.19F
PRINCE ALBERT  CLOUDY    21  18  86 SW2       30.23R
REGINA         CLOUDY    25  21  86 SE8       30.20F WCI  16
YORKTON        CLOUDY    23  19  86 S3        30.21S   C1F1C2F2C3F3C4F4C5F5C6F6C7F7C8F8C9F9CaFaCbFbCcFcCdFdCe!



USA.gov is the U.S. government's official web portal to all federal, state and local government web resources and services.